Weather in Wuhan

China     30°35′29″N   114°18′53″E
temp.,
°C
wind,
m/s
gust,
m/s
humid.,
%
clouds,
%
prec.,
mm/h
press.,
hPa
HPBL,
m
13 april, tue
tue1323:00+19ssw126755 0.0 101875
02:00+17w237533 0.0 1017133
05:00+17nnw0078100 0.0 101711
08:00+18nne337098 0.0 1019302
11:00+21nne335663 0.0 1018916
14:00+24ne2344100 0.0 10162063
17:00+23ene3451100 0.0 10151051
20:00+21ne3559100 0.2 1017600
14 april, wed
wed1423:00+18ene4683100 2.2 1019484
02:00+18nne3480100 2.7 1018348
05:00+16nne578298 0.0 1017449
08:00+16nne4681100 0.0 1019442
11:00+17nne4477100 0.1 1020580
14:00+19ne3369100 0.4 1016876
17:00+18ene1174100 0.1 1016398
20:00+17sse2384100 0.3 1017250
15 april, thu
thu1523:00+16s1280100 0.1 1017225
02:00+16sse1177100 0.1 1015242
05:00+15s018199 0.0 101482
08:00+17ese1174100 0.0 1016412
11:00+20wnw1160100 0.0 10161008
14:00+21w3457100 0.1 10151297
17:00+22wnw455454 0.2 10151472
20:00+21w116099 0.2 101721
16 april, fri
fri1623:00+19sw2472100 0.0 1018137
02:00
05:00+17nne2380100 0.0 101874
08:00+18nne3658100 0.0 1020368
11:00+21nne4519100 0.0 1021714
14:00+23nne3415100 0.0 10191078
17:00+24nne2317100 0.0 10181405
20:00+21sse1127100 0.0 102029
17 april, sat
sat1723:00+18ssw233762 0.0 102186
02:00+19sw1133100 0.0 102011
05:00+16nw11415 0.0 102111
08:00+18ne2338100 0.0 1023263
11:00+23nne3427100 0.0 1024919
14:00+26e3421100 0.0 10211723
17:00+25se4425100 0.0 10201459
20:00+22se3640100 0.0 1021379